Home   Weather   Jessheim   Past weeks

Flag for Norway Past Weather in Jessheim, Norway — Yesterday and Last 2 Weeks

Now
75 °F

Passing clouds.


Feels Like: 78 °F
Forecast: 55 / 67 °F
Wind: 15 mph from Southwest

Location: Oslo Gardermoen Airport

Current Time: May 27, 2017 at 1:48:02 pm

Latest Report: May 27, 2017 at 12:50 pm


Visibility: N/A

Pressure: 30.04 "Hg

Humidity: 41%

Dew Point: 50 °F

Location of JessheimLocation

Past Weather in Jessheim — Graph

°F

Jessheim Temperature Yesterday

Maximum temperature yesterday: 75 °F (at 4:20 pm)
Minimum temperature yesterday: 50 °F (at 4:50 am)
Average temperature yesterday: 63 °F

High & Low Weather Summary for the Past Weeks

 TemperatureHumidityPressure
High75 °F (May 26, 4:20 pm)100% (May 15, 5:50 am)30.39 "Hg (May 15, 5:50 am)
Low30 °F (May 13, 4:50 am)29% (May 24, 2:20 pm)29.74 "Hg (May 18, 4:20 pm)
Average53 °F70%30.03 "Hg
* Reported May 12 12:20 pm — May 27 12:20 pm, Jessheim. Weather by CustomWeather, © 2017

Note: Actual official high and low records may vary slightly from our data, if they occured in-between our weather recording intervals... More about our weather records

Advertising

Jessheim Weather History for the Previous 24 Hours

Scroll right to see more
 ConditionsComfort  
Time TempWeatherWind HumidityBarometerVisibility
12:20 pm
Sat, May 27
73 °FPassing clouds.14 mph47%30.04 "HgN/A
11:50 am72 °FSunny.13 mph53%30.07 "Hg10 mi
11:20 am72 °FSunny.12 mph53%30.07 "Hg10 mi
10:50 am70 °FPassing clouds.8 mph53%30.07 "HgN/A
10:20 am68 °FPassing clouds.8 mph56%30.07 "HgN/A
9:50 am68 °FPassing clouds.6 mph56%30.07 "HgN/A
9:20 am66 °FPassing clouds.6 mph56%30.09 "HgN/A
8:50 am64 °FPassing clouds.3 mph60%30.09 "HgN/A
8:20 am63 °FPassing clouds.5 mph59%30.09 "HgN/A
7:50 am59 °FSunny.2 mph68%30.09 "Hg10 mi
7:20 am57 °FSunny.2 mph72%30.09 "Hg10 mi
6:50 am55 °FSunny.No wind77%30.09 "Hg10 mi
6:20 am54 °FSunny.No wind77%30.09 "Hg10 mi
5:50 am52 °FSunny.No wind82%30.09 "Hg10 mi
5:20 am52 °FSunny.No wind82%30.09 "Hg10 mi
4:50 am52 °FSunny.1 mph77%30.09 "Hg10 mi
4:20 am52 °FSunny.2 mph82%30.09 "Hg10 mi
3:50 am52 °FClear.No wind77%30.07 "Hg10 mi
3:20 am55 °FClear.2 mph67%30.07 "Hg10 mi
2:50 am54 °FClear.No wind72%30.07 "Hg10 mi
2:20 am54 °FClear.No wind72%30.07 "Hg10 mi
1:50 am55 °FClear.No wind72%30.07 "Hg10 mi
1:20 am57 °FClear.1 mph67%30.07 "Hg10 mi
12:50 am57 °FClear.No wind67%30.07 "Hg10 mi
12:20 am57 °FClear.2 mph67%30.07 "Hg10 mi
11:50 pm
Fri, May 26
59 °FClear.2 mph63%30.07 "Hg10 mi
11:20 pm61 °FClear.5 mph55%30.07 "Hg10 mi
10:50 pm61 °FClear.No wind55%30.07 "Hg10 mi
10:20 pm63 °FClear.7 mph52%30.07 "Hg10 mi
9:50 pm64 °FSunny.10 mph49%30.07 "Hg10 mi
9:20 pm66 °FPassing clouds.8 mph46%30.04 "HgN/A
8:50 pm66 °FPassing clouds.12 mph46%30.04 "HgN/A
8:20 pm68 °FPassing clouds.10 mph43%30.04 "HgN/A
7:50 pm70 °FPassing clouds.15 mph40%30.04 "HgN/A
7:20 pm70 °FSunny.17 mph40%30.04 "Hg10 mi
6:50 pm72 °FSunny.16 mph41%30.04 "Hg10 mi
5:20 pm73 °FPassing clouds.15 mph38%30.04 "HgN/A
4:50 pm73 °FPassing clouds.9 mph38%30.04 "HgN/A
4:20 pm75 °FPassing clouds.10 mph36%30.07 "HgN/A
3:50 pm73 °FPassing clouds.8 mph38%30.07 "HgN/A
3:20 pm73 °FSunny.9 mph38%30.07 "Hg10 mi
2:50 pm73 °FPassing clouds.6 mph38%30.07 "HgN/A
2:20 pm73 °FPassing clouds.8 mph38%30.07 "HgN/A
1:50 pm72 °FPassing clouds.12 mph41%30.09 "HgN/A
1:20 pm72 °FPassing clouds.8 mph41%30.09 "HgN/A
Weather by CustomWeather, © 2017

See weather overviewHow to use our weather pages